Location: Auckland
(36.8670°S, 174.7670°E)
Time: 10:44:50
(UTC+12:00)

Tiros 1 despin weight - Pass Details

Date: 20 July 2019
Orbit: 594 x 642 km, 48.2° (Epoch: 19 August)

Event Time Altitude Azimuth Distance (km) Brightness Sun altitude
Rises 03:23:13 0° 249° (WSW) 2,858 - -48.7°
Reaches altitude 10° 03:26:04 10° 231° (SW) 1,961 - -48.1°
Maximum altitude 03:29:21 19° 184° (S) 1,453 - -47.5°
Drops below altitude 10° 03:32:39 10° 137° (SE) 1,980 - -46.8°
Exits shadow 03:35:13 - 120° (ESE) 2,783 ? -46.3°
Sets 03:35:33 0° 119° (ESE) 2,895 ? -46.3°
